Terug naar catalogus

STARLINK-31200

ActiefCommunicatieVLEO
NORAD 58862·PAYLOAD·🇺🇸 United States

Gelanceerd Jan 29, 2024 vanaf Cape Canaveral Space Force Station

Loading…

Volgende Passages (komende 24 uur)

TLE

VersSource: CelesTrak SupGP

Epoch: Sep 14, 2026, 22:24 UTC

1 58862C 24019K   26257.93381944  .00034547  00000+0  12512-2 0  2570
2 58862  43.0016 260.0858 0001417 264.1011 173.4733 15.27562623    10

Volg STARLINK-31200 in realtime met AllMySat

Download on the App Store